Location: Devore Heights
(34.2372°N, 117.4156°W)
Time: 19:50:05
(UTC+00:00)

deb Explorer IX - Pass Details

Date: 22 September 2024
Orbit: 502 x 816 km, 38.7° (Epoch: 15 October)

Event Time Altitude Azimuth Distance (km) Brightness Sun altitude
Rises 04:36:40 0° 289° (WNW) 3,371 ? -34.7°
Reaches altitude 10° 04:39:11 10° 291° (WNW) 2,453 ? -35.1°
Enters shadow 04:42:44 38° 297° (WNW) 1,264 ? -35.8°
Maximum altitude 04:45:06 78° 17° (NNE) 862 - -36.2°
Drops below altitude 10° 04:50:55 10° 104° (ESE) 2,413 - -37.2°
Sets 04:53:23 0° 106° (ESE) 3,313 - -37.7°
